Flag for Germany Weather past 2 weeks in Friedrichshafen, Baden-Württemberg, Germany

Now
57 °F

Sunny.


Feels Like: 57 °F
Forecast: 49 / 58 °F
Wind: No wind

Location: Friedrichshafen Airport

Current Time: May 25, 2015 at 9:51:06 AM

Latest Report: May 25, 2015 at 9:20 AM


Visibility: 10 mi

Pressure: 30.04 "Hg

Humidity: 67%

Dew point: 46 °F

Location of FriedrichshafenLocation

Historic Weather in Friedrichshafen — Graph

°F

Friedrichshafen temperature yesterday

Maximum temperature yesterday: 64 °F (at 12:20 PM)
Minimum temperature yesterday: 48 °F (at 4:50 AM)
Average temperature yesterday: 57 °F

Past Weeks' High & Low Weather Summary

 TemperatureHumidityPressure
High82 °F (May 12, 4:20 PM)93% (May 21, 10:50 PM)30.39 "Hg (May 21, 10:50 PM)
Low43 °F (May 21, 1:50 AM)26% (May 12, 5:20 PM)29.77 "Hg (May 18, 5:50 PM)
Average57 °F67%30.09 "Hg
* Reported May 10 8:20 AM — May 25 8:20 AM, Friedrichshafen, Weather by CustomWeather, © 2015

Note: Actual official high and low records may vary slightly from our data, if they occured in-between our weather recording intervals... More about our weather records

Advertising

Friedrichshafen weather history for previous 24 hours

 ConditionsComfort  
Time TempWeatherWind HumidityBarometerVisibility
8:20 AM
Mon, May 25
54 °FSunny.2 mph82%30.01 "Hg10 mi
7:50 AM54 °FOvercast.2 mph77%30.04 "HgN/A
7:20 AM52 °FOvercast.2 mph82%30.04 "HgN/A
6:50 AM52 °FOvercast.2 mph82%30.04 "HgN/A
6:20 AM52 °FClear.2 mph82%30.04 "Hg10 mi
5:50 AM52 °FSprinkles. Overcast.2 mph82%30.04 "HgN/A
5:20 AM52 °FOvercast.No wind82%30.04 "HgN/A
4:50 AM52 °FMostly cloudy.No wind82%30.04 "HgN/A
4:20 AM54 °FMostly cloudy.3 mph72%30.04 "HgN/A
3:50 AM54 °FMostly cloudy.2 mph72%30.04 "HgN/A
3:20 AM54 °FOvercast.2 mph72%30.04 "HgN/A
2:50 AM55 °FClear.2 mph67%30.04 "Hg10 mi
2:20 AM55 °FCool.1 mph67%30.04 "HgN/A
1:50 AM55 °FOvercast.5 mph67%30.04 "HgN/A
1:20 AM55 °FOvercast.6 mph67%30.04 "HgN/A
12:50 AM57 °FClear.5 mph59%30.04 "Hg10 mi
12:20 AM57 °FOvercast.8 mph59%30.04 "HgN/A
11:50 PM
Sun, May 24
57 °FMostly cloudy.7 mph59%30.04 "HgN/A
11:20 PM57 °FClear.6 mph59%30.04 "Hg10 mi
10:50 PM57 °FClear.5 mph59%30.07 "Hg10 mi
10:20 PM59 °FClear.6 mph55%30.07 "Hg10 mi
9:50 PM59 °FSunny.7 mph55%30.04 "Hg10 mi
9:20 PM59 °FSunny.7 mph55%30.04 "Hg10 mi
8:50 PM59 °FSunny.9 mph55%30.04 "Hg10 mi
8:20 PM61 °FSunny.7 mph52%30.04 "Hg10 mi
7:50 PM61 °FSunny.10 mph52%30.04 "Hg10 mi
7:20 PM63 °FMore clouds than sun.10 mph49%30.04 "HgN/A
6:50 PM64 °FSunny.10 mph46%30.04 "Hg10 mi
6:20 PM64 °FSunny.12 mph46%30.04 "Hg10 mi
5:50 PM64 °FOvercast.9 mph46%30.04 "HgN/A
5:20 PM64 °FSunny.13 mph49%30.04 "Hg10 mi
4:50 PM64 °FPassing clouds.10 mph49%30.04 "HgN/A
4:20 PM64 °FSunny.9 mph49%30.04 "Hg10 mi
3:50 PM64 °FSunny.9 mph46%30.04 "Hg10 mi
3:20 PM64 °FSunny.10 mph46%30.07 "Hg10 mi
2:50 PM64 °FPartly sunny.10 mph49%30.07 "HgN/A
2:20 PM64 °FMore clouds than sun.12 mph46%30.07 "HgN/A
1:50 PM63 °FBroken clouds.12 mph49%30.07 "HgN/A
1:20 PM64 °FPartly sunny.7 mph46%30.07 "HgN/A
12:50 PM63 °FPartly sunny.7 mph49%30.07 "HgN/A
12:20 PM64 °FBroken clouds.7 mph46%30.07 "HgN/A
11:50 AM61 °FBroken clouds.8 mph52%30.07 "HgN/A
11:20 AM61 °FPartly sunny.5 mph52%30.07 "HgN/A
10:50 AM59 °FPassing clouds.5 mph55%30.07 "HgN/A
10:20 AM59 °FPassing clouds.5 mph59%30.07 "HgN/A
9:50 AM57 °FSunny.3 mph63%30.07 "Hg10 mi
9:20 AM55 °FSunny.3 mph67%30.07 "Hg10 mi
Weather by CustomWeather, © 2015

See weather overviewHow to use our weather pages